Location: Владивосток
(43.1151°N, 131.8856°E)
Time: 23:15:57
(UTC+10:00)

DX 1 - Pass Details

Date: 07 July 2022
Orbit: 617 x 630 km, 98.4° (Epoch: 13 August)

Event Time Altitude Azimuth Distance (km) Brightness Sun altitude
Rises 21:31:12 0° 27° (NNE) 2,925 ? -6.3°
Reaches altitude 10° 21:33:51 10° 43° (NE) 2,010 ? -6.7°
Maximum altitude 21:37:14 22° 94° (E) 1,381 ? -7.1°
Drops below altitude 10° 21:40:36 10° 145° (SE) 1,991 ? -7.6°
Enters shadow 21:41:02 - 149° (SSE) 2,126 ? -7.7°
